Location: Gandikunta
(16.3784°N, 80.8378°E)
Time: 21:36:24
(UTC+00:00)

Cosmos 2227 Rocket - Pass Details

Date: 19 May 2025
Orbit: 837 x 844 km, 71.0° (Epoch: 18 June)

Event Time Altitude Azimuth Distance (km) Brightness Sun altitude
Exits shadow 21:26:43 15° 338° (NNW) 2,131 4.4 -34.0°
Drops below altitude 10° 21:27:48 10° 346° (NNW) 2,445 4.8 -33.8°
Sets 21:30:38 0° 359° (N) 3,381 5.8 -33.3°
